User: anonymous
Location: Fort Wayne
(41.1310°N, 85.1290°W)
Time: 10:29:16
(UTC-04:00)
Language:

CZ-2C R/B - Orbit

View from above orbital plane
View from above orbital plane
View from above satellite
View from above satellite

Ground track
Ground track

The orbit data is extracted from the following two-line orbital elements,

1 36089U 09061B   14275.11348861  .00000320  00000-0  92031-4 0  4486
2 36089 098.0975 303.8471 0082291 209.4544 215.2245 14.49228165258426
Epoch (UTC): 02 October 2014 02:43:25
Eccentricity: 0.0082291
inclination: 98.0975°
perigee height: 669 km
apogee height: 786 km
right ascension of ascending node: 303.8471°
argument of perigee: 209.4544°
revolutions per day: 14.49228165
mean anomaly at epoch: 215.2245°
orbit number at epoch: 25842

The dashed part of the orbit path shows where the satellite is in the earth's shadow,  

DLR